Air Resources Laboratory banner image
Air Resources Laboratory web site National Oceanic and Atmospheric Administration (NOAA)

ny roundup


Office: ALY

ASUS41 KALY 140410
RWRALY

NEW YORK STATE HOURLY WEATHER ROUNDUP
NATIONAL WEATHER SERVICE ALBANY NY
1100 PM EST WED DEC 13 2017

NOTE: "FAIR" INDICATES FEW OR NO CLOUDS BELOW 12,000 FEET WITH NO
SIGNIFICANT WEATHER AND/OR NO OBSTRUCTIONS TO VISIBILITY.

NYZ032-033-038>043-046>054-057>066-NYZ062>081-082-084-140500-
EAST


CITY           SKY/WX    TMP DP  RH WIND       PRES   REMARKS
ALBANY         CLOUDY    18   5  57 SW8       29.61R WCI   8
GLENS FALLS    CLEAR     10   3  73 SE3       29.57R
POUGHKEEPSIE   CLOUDY    23   5  46 W9        29.64R WCI  13
NEWBURGH       CLOUDY    21  10  63 W6        29.63R WCI  14
MONTGOMERY     CLOUDY    23   8  52 W5        29.61F WCI  17
WHITE PLAINS   CLOUDY    25   6  44 W7        29.62F WCI  17
ISLIP          CLOUDY    28   8  43 W8        29.64F WCI  20
NEW YORK CITY  CLOUDY    28   5  37 W15       29.67F WCI  16
CENTRAL PARK   CLOUDY    27   6  41 VRB5G17   29.68F WCI  22
$$

NYZ005>009-017-018-044>046-055-056-140500-
CENTRAL


CITY           SKY/WX    TMP DP  RH WIND       PRES   REMARKS
FULTON         LGT SNOW  17  11  77 SW7       29.60R WCI   8
SYRACUSE       CLOUDY    17  10  74 SW7       29.59R WCI   8
ROME           CLOUDY    15  12  88 CALM      29.60R
ELMIRA         LGT SNOW  19  18  95 CALM      29.56F VSB 1
BINGHAMTON     LGT SNOW  13  11  92 SW6       29.52S VSB 1   WCI   4
MONTICELLO     CLOUDY    16   7  67 W5        29.56S WCI   9
$$

NYZ026>034-041>043-087-140500-
NORTH


CITY           SKY/WX    TMP DP  RH WIND       PRES   REMARKS
WATERTOWN      CLOUDY     7   3  84 CALM      29.61R
FORT DRUM      NOT AVBL
OGDENSBURG     FAIR       6  -1  72 W7        29.60S WCI  -6
MASSENA        CLEAR      6  -2  69 W9        29.61R WCI  -8
SARANAC LAKE   CLEAR      1  -2  87 W5        29.42F WCI  -9
PLATTSBURGH    CLEAR     10  -4  53 MISG      29.52R
$$

NYZ001>004-010>016-019>021-085-140500-
WEST


CITY           SKY/WX    TMP DP  RH WIND       PRES   REMARKS
NIAGARA FALLS  LGT SNOW  19  13  77 E8        29.55F WCI   9
BUFFALO        LGT SNOW  17  14  88 E8        29.54F FOG     WCI   7
DUNKIRK        LGT SNOW  19  16  88 NE5       29.50F FOG     WCI  12
JAMESTOWN      LGT SNOW  15  13  91 SE6       29.42F FOG     WCI   6
WELLSVILLE     LGT SNOW  15  11  83 SE5       29.43F FOG     WCI   8
ROCHESTER      LGT SNOW  17  15  92 SW3       29.59F FOG
PENN YAN       LGT SNOW  18  14  84 CALM      29.56F VSB 3/4
$$

             KEY
       WCI = WIND CHILL INDEX
       VSB = VISIBILITY
       HX  = HEAT INDEX
$$




Office: OKX ASUS41 KOKX 140408 RWROKX REGIONAL WEATHER ROUNDUP NATIONAL WEATHER SERVICE NEW YORK NY 1100 PM EST WED DEC 13 2017 NOTE: "FAIR" INDICATES FEW OR NO CLOUDS BELOW 12,000 FEET WITH NO SIGNIFICANT WEATHER AND/OR OBSTRUCTIONS TO VISIBILITY. NYZ071-072-176-178-NJZ106-104-140500- NEW YORK CITY METRO AREA CITY SKY/WX TMP DP RH WIND PRES REMARKS Central Park CLOUDY 27 6 41 VRB5G17 29.68F WCI 22 Bronx Bot Gard N/A 28 7 40 W14 29.69R WCI 17 Bronx Lehman C NOT AVBL LaGuardia APRT CLOUDY 28 5 37 W15 29.67F WCI 16 Queens College NOT AVBL Kennedy INTL CLOUDY 28 7 41 W15 29.69S WCI 16 Breezy Point N/A N/A N/A N/A W9 N/A Brooklyn Coll NOT AVBL Staten Island NOT AVBL Newark/Liberty CLOUDY 28 6 39 SW9 29.67F WCI 19 Teterboro CLOUDY 27 7 42 W6 29.67S WCI 20 $$ NYZ177-179-078>081-140500- LONG ISLAND NEW YORK CITY SKY/WX TMP DP RH WIND PRES REMARKS Jones Beach N/A N/A N/A N/A W18 N/A Wantagh NOT AVBL Matinecock PT N/A N/A N/A N/A W22G28 N/A Farmingdale CLOUDY 27 7 42 W10 29.66S WCI 17 MacArthur/ISP CLOUDY 28 8 43 W8 29.64F WCI 20 Shirley CLOUDY 28 9 44 W10 29.66S WCI 19 Mt Sinai Harb N/A N/A N/A N/A W7 N/A Westhampton CLOUDY 27 7 42 W13 29.67R WCI 16 East Hampton MOCLDY 27 10 48 W9 29.64R WCI 17 Southold NOT AVBL Montauk N/A 31 11 43 W17G30 29.64R WCI 19 $$ NYZ052-065-067-140500- HUDSON VALLEY CITY SKY/WX TMP DP RH WIND PRES REMARKS White Plains CLOUDY 25 6 44 W7 29.62F WCI 17 Larchmont Harb N/A N/A N/A N/A SW13 N/A Croton On Huds N/A N/A N/A N/A W10 N/A Somers NOT AVBL Brewster NOT AVBL Newburgh CLOUDY 21 10 63 W6 29.63R WCI 14 Montgomery CLOUDY 23 8 52 W5 29.61F WCI 17 Otisville NOT AVBL Warwick NOT AVBL Suffern NOT AVBL Poughkeepsie CLOUDY 23 5 46 W9 29.64R WCI 13 Albany CLOUDY 18 5 57 SW8 29.61R WCI 8 $$ NJZ001-105-106-008-010-013-015-019>022-104-140500- NEW JERSEY CITY SKY/WX TMP DP RH WIND PRES REMARKS Newark/Liberty CLOUDY 28 6 39 SW9 29.67F WCI 19 Teterboro CLOUDY 27 7 42 W6 29.67S WCI 20 Caldwell CLOUDY 26 6 42 W3 29.67S Somerville CLOUDY 25 12 58 VRB6 29.68R WCI 18 Linden CLOUDY 27 5 38 CALM 29.69R Perth Amboy N/A N/A N/A N/A SW14 N/A Sussex CLOUDY 24 8 50 SW5 29.63S WCI 18 Andover NOT AVBL Trenton LGT SNOW 24 20 84 SW7 29.69R FOG WCI 16 Millville SNOW 28 27 96 SW7 29.72R VSB 1/2 WCI 21 Atlantic City SNOW 28 27 96 SW5 29.72F VSB 1/2 WCI 23 Wrightstown LGT SNOW 24 21 87 W8 29.68R FOG WCI 16 Toms River LGT SNOW 25 20 81 SW7 29.71S WCI 17 Belmar FLURRIES 26 12 55 SW12 29.70S WCI 16 $$ PAZ047>061-062-071-140500- EASTERN PENNSYLVANIA CITY SKY/WX TMP DP RH WIND PRES REMARKS Philadelphia LGT SNOW 27 24 89 S8 29.71S VSB 3/4 WCI 19 Allentown LGT SNOW 23 18 81 SW6 29.66R VSB 3/4 WCI 16 Scranton LGT SNOW 19 16 88 CALM 29.59S VSB 3/4 $$ CTZ002-004>006-009-010-012-RIZ004-006-007-MAZ004-011-015-140500- SOUTHERN NEW ENGLAND IN CT CITY SKY/WX TMP DP RH WIND PRES REMARKS Bradley INTL CLOUDY 19 6 57 SW3 29.62R Hartford CLOUDY 23 5 46 W6 29.64R WCI 16 Danbury CLOUDY 24 6 46 VRB6 29.63R WCI 17 Wtrbury/Oxford CLOUDY 21 7 54 W9G17 29.61R WCI 11 Norwalk Harbor N/A N/A N/A N/A W13 N/A Bridgeport CLOUDY 27 6 41 W12 29.65R WCI 17 Meriden PTCLDY 24 5 44 W8 29.65R WCI 15 New Haven CLOUDY 27 7 42 W7 29.66R WCI 19 Chester FAIR 23 3 42 W6G12 29.62R WCI 16 Groton PTCLDY 26 4 38 W13G21 29.64R WCI 15 Wilimantic CLOUDY 23 5 46 W6 29.62R WCI 16 IN RI CITY SKY/WX TMP DP RH WIND PRES REMARKS Providence CLOUDY 24 6 46 W18 29.60R WCI 10 Block Island PTCLDY 28 13 53 W16G31 29.62R WCI 16 Westerly MOCLDY 26 4 38 W10G17 29.64R WCI 16 IN MA CITY SKY/WX TMP DP RH WIND PRES REMARKS Boston CLOUDY 22 9 57 SW21G29 29.54R WCI 6 Worcester CLOUDY 15 4 61 W10 29.49S WCI 2 Westfield CLOUDY 19 7 59 W12 29.60R WCI 7 Provincetown CLEAR 24 13 62 W22G32 29.54R WCI 9 Nantucket CLOUDY 30 15 53 W22G33 29.58R WCI 17 $$ ANZ330-335-338-340-345-350-353-355-140500- COASTAL MARINE OBSERVATIONS STATION/POSITION TIME SKY/WX TEMP WIND PRES VSBY WAVE AIR SEA DIR/SP/G HT/PER (UTC) (F) (DEG/KT/KT) (MB) (MI) (FT/S) NY HARB ENTRANCE 0250 31 52 280/ 21/ 25 1004.3 4/ 4 20 S FIRE ISLAND 0250 32 51 280/ 21/ 25 1004.5 7/ 6 GREAT SOUTH BAY 0315 29 45 280/ 14/ 21 N/A HUDSON CANYON 0250 36 56 270/ 21/ 27 1005.0 9/ 7 KINGS POINT 0330 28 42 320/ 11/ 14 1005.1 EXECUTION ROCKS 0330 29 240/ 16/ 21 N/A WESTERN LI SOUND NOT AVBL CENTRAL LI SOUND 0300 30 280/ 21/ 27 N/A 6 ROBBINS REEF 0330 27 270/ 10/ 14 1004.9 $$ >>>>>>>>>>>>>>>>>>>>>>>>>>>> KEY <<<<<<<<<<<<<<<<<<<<<<<<<<< > < > SKY/WX - Sky Condition/Present Weather < > TMP - Temperature in Fahrenheit < > DP - Dew Point in Fahrenheit < > RH - Relative Humidity in Percent < > WIND - Direction (from) and Speed in MPH < > PRES - Mean Sea Level Pressure (inches of Hg) < > WCI - Wind Chill Index < > VSB - VISIBILITY IN MILES < > HX - HEAT INDEX < > TC - TEMPERATURE IN CELSIUS < > VRB - VARIABLE WIND DIRECTION < > < >>>>>>>>>>>>>>>>>>>>>>>>>>>> KEY <<<<<<<<<<<<<<<<<<<<<<<<<<<
Office: BUF ASUS61 KBUF 140022 RTPBUF MAX/MIN TEMPERATURE AND PRECIPITATION TABLE FOR WESTERN NY AND THE EASTERN LAKE ONTARIO REGION NATIONAL WEATHER SERVICE BUFFALO, NY 722 PM EST Wed Dec 13 2017 Values represent: High temperature over the last 18 hours Low temperature over the last 18 hours Precipitation over the last 24 hours .BR BUF 1213 ES DH19/TAIRZS/TAIRZI/PPDRZZ/SFDRZZ/SDIRZZ : : Official Climate Stations : Max Min 24 HR Snow Snow : Location Temp Temp Precip Fall Depth BUF :Buffalo Airport : 20 / 10 / 0.01 / 0.2 / 4 ROC :Rochester Airport : 20 / 14 / 0.10 / 3.1 / 6 ART :Watertown Airport : 16 / 6 / T / / : : Unofficial Supplemental Sites : IAG :Niagara Falls Airport : 20 / 12 / T / / DKK :Dunkirk Airport : 22 / 16 / T / / ELZ :Wellsville Airport : 18 / 11 / T / / DSV :Dansville Airport : 21 / 14 / T / / FZY :Oswego Airport : 21 / 14 / 0.03 / / GTB :Fort Drum : 15 / 7 / T / / .END These data are preliminary and have not undergone final quality control by the National Centers for Environmental Information (formerly National Climatic Data Center - NCDC). Therefore... these data are subject to revision. Final and certified climate data can be accessed at www.ncdc.noaa.gov. $$
Office: BOX ASUS41 KBOX 140410 RWRBOX REGIONAL WEATHER ROUNDUP NATIONAL WEATHER SERVICE TAUNTON MA 1100 PM EST WED DEC 13 2017 NOTE: "FAIR" INDICATES FEW OR NO CLOUDS BELOW 12,000 FEET WITH NO SIGNIFICANT WEATHER AND/OR OBSTRUCTIONS TO VISIBILITY. MAZALL-140500- EASTERN MASSACHUSETTS CITY SKY/WX TMP DP RH WIND PRES REMARKS BOSTON CLOUDY 22 9 57 SW21G29 29.54R WCI 6 BEVERLY CLEAR 22 10 60 W15G21 29.51R WCI 9 LAWRENCE CLEAR 23 10 57 SW16 29.53R WCI 10 BEDFORD CLOUDY 20 8 60 W12G21 29.52R WCI 8 BLUE HILL N/A 19 6 57 W15G26 29.50R WCI 5 NORWOOD CLOUDY 22 8 55 SW14G23 29.56R WCI 9 MARSHFIELD PTCLDY 23 7 50 W10G20 29.55S WCI 12 PLYMOUTH CLOUDY 24 7 48 W17G24 29.56R WCI 11 TAUNTON CLOUDY 23 7 50 W12G18 29.57R WCI 12 NEW BEDFORD CLOUDY 24 6 46 W21G29 29.58R WCI 9 $$ MAZALL-140500- CAPE COD AND THE ISLANDS CITY SKY/WX TMP DP RH WIND PRES REMARKS FALMOUTH CLOUDY 25 7 46 W23 29.57R WCI 10 HYANNIS CLOUDY 26 8 46 W15G23 29.54S WCI 14 CHATHAM MOCLDY 25 8 48 W10G22 29.56R WCI 15 PROVINCETOWN CLEAR 24 13 62 W22G32 29.54R WCI 9 NANTUCKET CLOUDY 30 15 53 W22G33 29.58R WCI 17 MARTHAS VNYRD CLOUDY N/A N/A N/A W17G25 29.59R $$ MAZALL-140500- CENTRAL AND WESTERN MASSACHUSETTS CITY SKY/WX TMP DP RH WIND PRES REMARKS WORCESTER CLOUDY 15 4 61 W10 29.49S WCI 2 FITCHBURG CLEAR 21 10 62 W9 29.53R WCI 11 ORANGE NOT AVBL SPRINGFIELD MOCLDY 19 6 58 W15 29.58R WCI 5 WESTFIELD CLOUDY 19 7 59 W12 29.60R WCI 7 NORTH ADAMS CLOUDY 17 7 64 W15 29.55R WCI 2 PITTSFIELD CLOUDY 15 4 61 SW8 29.52R WCI 4 $$ RIZALL-140500- RHODE ISLAND CITY SKY/WX TMP DP RH WIND PRES REMARKS PROVIDENCE CLOUDY 24 6 46 W18 29.60R WCI 10 NEWPORT CLOUDY 24 5 44 W12G22 29.60R WCI 13 BLOCK ISLAND PTCLDY 28 13 53 W16G31 29.62R WCI 16 SMITHFIELD CLOUDY 19 8 62 W15G21 29.57R WCI 5 WESTERLY MOCLDY 26 4 38 W10G17 29.64R WCI 16 $$ CTZALL-140500- CONNECTICUT CITY SKY/WX TMP DP RH WIND PRES REMARKS BRADLEY INTL CLOUDY 19 6 57 SW3 29.62R HARTFORD CLOUDY 23 5 46 W6 29.64R WCI 16 BRIDGEPORT CLOUDY 27 6 41 W12 29.65R WCI 17 DANBURY CLOUDY 24 6 46 VRB6 29.63R WCI 17 GROTON PTCLDY 26 4 38 W13G21 29.64R WCI 15 NEW HAVEN CLOUDY 27 7 42 W7 29.66R WCI 19 CHESTER FAIR 23 3 42 W6G12 29.62R WCI 16 MERIDEN PTCLDY 24 5 44 W8 29.65R WCI 15 WILLIMANTIC CLOUDY 23 5 46 W6 29.62R WCI 16 OXFORD CLOUDY 21 7 54 W9G17 29.61R WCI 11 $$ MEZ002-015-021-024-NHZ003-005-008-011-012-014-VTZ005-008-140500- NORTHERN NEW ENGLAND CITY SKY/WX TMP DP RH WIND PRES REMARKS PORTLAND ME CLEAR 17 7 64 W18G25 29.41R WCI 1 BANGOR ME CLEAR 11 3 70 W9 29.30R WCI -2 CONCORD NH CLEAR 17 7 64 SW3 29.47R MANCHESTER NH CLEAR 19 9 65 SW7 29.48R WCI 10 NASHUA NH CLEAR 18 11 74 W9 29.52R WCI 7 PORTSMOUTH NH PTCLDY 19 8 63 W9 29.46R WCI 8 JAFFREY NH CLEAR 16 9 74 VRB6 29.46R WCI 7 KEENE NH PTCLDY 16 10 77 SW7 29.52S WCI 6 BURLINGTON VT CLEAR 13 -1 54 NW13 29.50R WCI -2 MT. WASHINGTON BLWGSNOW -13 -13 100 W75G84 N/A VSB 0 WCI -55 $$ NYZ052-076-140500- EASTERN NEW YORK CITY SKY/WX TMP DP RH WIND PRES REMARKS ALBANY CLOUDY 18 5 57 SW8 29.61R WCI 8 NEW YORK CITY CLOUDY 28 5 37 W15 29.67F WCI 16 $$ ANZALL-140500- MARINE OBSERVATIONS STATION/POSITION TIME TEMP WIND PRES VSBY WAVE AIR SEA DIR/SP/G HT/PER (UTC) (F) (DEG/KT/KT) (MB) (MI) (FT/S) BOSTON BUOY 0350 26 48 260/ 23/ 31 998.9R 5/ 5 BUZZARDS BAY 0300 27 280/ 29/ 33 1001.8R NANTUCKET SOUND 0350 30 44 270/ 25/ 29 1000.6R 4/ 5 MASS BAY-STELLWA 0304 26 47 280/ 25/ 35 998.4R 5/ 5 ISLE OF SHOALS 0300 22 270/ 25/ 32 997.3R S OF BLOCK IS 0343 54 N/A 11/ 7 $$ ......................KEY......................... SKY/WX - SKY CONDITION/PRESENT WEATHER TMP - TEMPERATURE IN FAHRENHEIT DWPT - DEWPOINT IN FAHRENHEIT RH - RELATIVE HUMIDITY IN PERCENT WIND - DIRECTION AND SPEED IN MPH PRES - MEAN SEA LEVEL PRESSURE IN INCHES OF HG WCI - WIND CHILL INDEX VSB - VISIBILITY IN MILES HX - HEAT INDEX TC - TEMPERATURE IN CELSIUS VRB - VARIABLE WIND DIRECTION N/A - NOT AVAILABLE
Office: GYX ASUS41 KGYX 140405 RWRGYX WEATHER ROUNDUP FOR MAINE AND NEW HAMPSHIRE NATIONAL WEATHER SERVICE GRAY ME 1100 PM EST WED DEC 13 2017 MEZ002-005-006-010-012-015-018-020-021-024-026-027-029-140500- MAINE CITY SKY/WX TMP DP RH WIND PRES REMARKS PORTLAND CLEAR 17 7 64 W18G25 29.41R WCI 1 SANFORD CLEAR 15 6 67 W15G22 29.45R WCI 0 BAR HARBOR CLEAR 13 4 67 VRB7G17 29.34R WISCASSET CLEAR 13 6 74 W5 29.40R ROCKLAND CLEAR 15 4 61 W16 29.37R WCI -1 FRYEBURG CLEAR 12 2 64 SW9 29.38R LEWISTONAUBURN CLEAR 3 -2 79 SW7 29.37R AUGUSTA CLEAR 12 1 61 W8 29.35R WATERVILLE CLEAR 12 2 64 W12G21 29.29R WCI -2 BANGOR CLEAR 11 3 70 W9 29.30R GREENVILLE N/A 6 0 76 W10G25 29.12R WCI -9 MILLINOCKET MOCLDY 11 3 70 W9G22 29.19R HOULTON CLOUDY 12 3 67 W15G23 29.10R WCI -4 PRESQUE ISLE FLURRIES 10 4 76 W13G21 29.06R WCI -5 FRENCHVILLE FLURRIES 8 3 80 W20G25 28.95R WCI -11 CARIBOU LGT SNOW 11 4 73 W18G25 29.02R WCI -7 $$ NHZ002-005-008-009-011-012-014-140500- NEW HAMPSHIRE CITY SKY/WX TMP DP RH WIND PRES REMARKS PORTSMOUTH PTCLDY 19 8 63 W9 29.46R ROCHESTER CLEAR 16 8 71 VRB3 29.45R NASHUA CLEAR 18 11 74 W9 29.52R MANCHESTER CLEAR 19 9 65 SW7 29.48R CONCORD CLEAR 17 7 64 SW3 29.47R LACONIA CLEAR 14 5 67 W21G29 29.44R WCI -4 PLYMOUTH MOCLDY 14 4 65 W13G21 29.45S WCI -1 BERLIN CLOUDY 9 0 67 VRB7 29.32R WHITEFIELD CLOUDY 9 4 80 SW8 29.38S JAFFREY CLEAR 16 9 74 VRB6 29.46R KEENE PTCLDY 16 10 77 SW7 29.52S LEBANON CLEAR 7 2 80 CALM 29.47R MT WASHINGTON BLWGSNOW -13 -13 100 W75G84 N/A VSB 0 WCI -55 $$ VTZ005-007-008-140500- VERMONT CITY SKY/WX TMP DP RH WIND PRES REMARKS ST JOHNSBURY N/A 9 5 84 MISG 29.42R MONTPELIER CLEAR 9 2 73 W9 29.45R BURLINGTON CLEAR 13 -1 54 NW13 29.50R WCI -2 $$ MAZ007-012-024-CTZ003-RIZ002-NYZ038-NYZ072-140500- SOUTHERN NEW ENGLAND AND NY CITY SKY/WX TMP DP RH WIND PRES REMARKS BOSTON CLOUDY 22 9 57 SW21G29 29.54R WCI 6 WORCESTER CLOUDY 15 4 61 W10 29.49S WCI 2 NANTUCKET CLOUDY 30 15 53 W22G33 29.58R WCI 17 PROVIDENCE CLOUDY 24 6 46 W18 29.60R WCI 10 HARTFORD CLOUDY 19 6 57 SW3 29.62R ALBANY CLOUDY 18 5 57 SW8 29.61R NEW YORK CITY CLOUDY 28 5 37 W15 29.67F WCI 16 $$ ANZ081-ANZ082-ANZ150-NHZ014-MEZ023>029-140500- COASTAL MARINE OBSERVATIONS STATION/POSITION TIME TEMP WIND PRES WAVE AIR SEA DIR/SP/G HT/PER (UTC) (F) (DEG/KT/KT) (MB) (FT/S) MOUNT DESERT ROC 0400 23 260/ 34/ 37 993.0R MATINICUS ROCK 0300 21 280/ 29/ 33 993.2R ISLE OF SHOALS 0300 22 270/ 25/ 32 997.3R JEFFREYS LEDGE 0336 48 N/A 9/ 6 GEORGES BANK BUO 0250 38 50 997.4 22/11 $$ .............KEY.............. WCI - WIND CHILL TC - TEMPERATURE IN CELSIUS VSB - VISIBILITY IN MILES HX - HEAT INDEX FAIR- INDICATES FEW OR NO CLOUDS BELOW 12,000 FT, WITH NO SIGNIFICANT WEATHER AND/OR OBSTRUCTIONS TO VISIBILITY. ASUS41 KGYX 140410 RWRGYX WEATHER ROUNDUP FOR MAINE AND NEW HAMPSHIRE NATIONAL WEATHER SERVICE GRAY ME 1100 PM EST WED DEC 13 2017 MEZ002-005-006-010-012-015-018-020-021-024-026-027-029-140500- MAINE CITY SKY/WX TMP DP RH WIND PRES REMARKS PORTLAND CLEAR 17 7 64 W18G25 29.41R WCI 1 SANFORD CLEAR 15 6 67 W15G22 29.45R WCI 0 BAR HARBOR CLEAR 13 4 67 VRB7G17 29.34R WISCASSET CLEAR 13 6 74 W5 29.40R ROCKLAND CLEAR 15 4 61 W16 29.37R WCI -1 FRYEBURG CLEAR 12 2 64 SW9 29.38R LEWISTONAUBURN CLEAR 3 -2 79 SW7 29.37R AUGUSTA CLEAR 12 1 61 W8 29.35R WATERVILLE CLEAR 12 2 64 W12G21 29.29R WCI -2 BANGOR CLEAR 11 3 70 W9 29.30R GREENVILLE N/A 6 0 76 W10G25 29.12R WCI -9 MILLINOCKET MOCLDY 11 3 70 W9G22 29.19R HOULTON CLOUDY 12 3 67 W15G23 29.10R WCI -4 PRESQUE ISLE FLURRIES 10 4 76 W13G21 29.06R WCI -5 FRENCHVILLE FLURRIES 8 3 80 W20G25 28.95R WCI -11 CARIBOU LGT SNOW 11 4 73 W18G25 29.02R WCI -7 $$ NHZ002-005-008-009-011-012-014-140500- NEW HAMPSHIRE CITY SKY/WX TMP DP RH WIND PRES REMARKS PORTSMOUTH PTCLDY 19 8 63 W9 29.46R ROCHESTER CLEAR 16 8 71 VRB3 29.45R NASHUA CLEAR 18 11 74 W9 29.52R MANCHESTER CLEAR 19 9 65 SW7 29.48R CONCORD CLEAR 17 7 64 SW3 29.47R LACONIA CLEAR 14 5 67 W21G29 29.44R WCI -4 PLYMOUTH MOCLDY 14 4 65 W13G21 29.45S WCI -1 BERLIN CLOUDY 9 1 70 VRB5 29.33R WHITEFIELD CLOUDY 9 4 80 SW8 29.38S JAFFREY CLEAR 16 9 74 VRB6 29.46R KEENE PTCLDY 16 10 77 SW7 29.52S LEBANON CLEAR 7 2 80 CALM 29.47R MT WASHINGTON BLWGSNOW -13 -13 100 W75G84 N/A VSB 0 WCI -55 $$ VTZ005-007-008-140500- VERMONT CITY SKY/WX TMP DP RH WIND PRES REMARKS ST JOHNSBURY N/A 9 5 84 MISG 29.42R MONTPELIER CLEAR 9 2 73 W9 29.45R BURLINGTON CLEAR 13 -1 54 NW13 29.50R WCI -2 $$ MAZ007-012-024-CTZ003-RIZ002-NYZ038-NYZ072-140500- SOUTHERN NEW ENGLAND AND NY CITY SKY/WX TMP DP RH WIND PRES REMARKS BOSTON CLOUDY 22 9 57 SW21G29 29.54R WCI 6 WORCESTER CLOUDY 15 4 61 W10 29.49S WCI 2 NANTUCKET CLOUDY 30 15 53 W22G33 29.58R WCI 17 PROVIDENCE CLOUDY 24 6 46 W18 29.60R WCI 10 HARTFORD CLOUDY 19 6 57 SW3 29.62R ALBANY CLOUDY 18 5 57 SW8 29.61R NEW YORK CITY CLOUDY 28 5 37 W15 29.67F WCI 16 $$ ANZ081-ANZ082-ANZ150-NHZ014-MEZ023>029-140500- COASTAL MARINE OBSERVATIONS STATION/POSITION TIME TEMP WIND PRES WAVE AIR SEA DIR/SP/G HT/PER (UTC) (F) (DEG/KT/KT) (MB) (FT/S) MOUNT DESERT ROC 0400 23 260/ 34/ 37 993.0R MATINICUS ROCK 0300 21 280/ 29/ 33 993.2R ISLE OF SHOALS 0300 22 270/ 25/ 32 997.3R JEFFREYS LEDGE 0336 48 N/A 9/ 6 GEORGES BANK BUO 0250 38 50 997.4 22/11 $$ .............KEY.............. WCI - WIND CHILL TC - TEMPERATURE IN CELSIUS VSB - VISIBILITY IN MILES HX - HEAT INDEX FAIR- INDICATES FEW OR NO CLOUDS BELOW 12,000 FT, WITH NO SIGNIFICANT WEATHER AND/OR OBSTRUCTIONS TO VISIBILITY.
Office: PHI ASUS41 KPHI 140412 RWRPHI REGIONAL WEATHER ROUNDUP NATIONAL WEATHER SERVICE MOUNT HOLLY NJ 1100 PM EST WED DEC 13 2017 NOTE: "FAIR" INDICATES FEW OR NO CLOUDS BELOW 12,000 FEET WITH NO SIGNIFICANT WEATHER AND/OR OBSTRUCTIONS TO VISIBILITY. * = STATION DOES NOT REPORT PRECIPITATION (E.G. RAIN, SNOW, ETC.) OR FOG. NJZ015>026-140500- SOUTHERN NEW JERSEY CITY SKY/WX TMP DP RH WIND PRES REMARKS POMONA SNOW 28 27 96 SW5 29.72F VSB 1/2 WCI 23 WILDWOOD* LGT SNOW 28 27 93 SW8 29.74S FOG WCI 20 MILLVILLE LGT SNOW 28 28 100 SW6 29.72R VSB 1 WCI 22 WRIGHTSTOWN LGT SNOW 24 21 87 W8 29.68R FOG WCI 16 MOUNT HOLLY LGT SNOW 24 23 96 SW3 29.71R VSB 3/4 TRENTON LGT SNOW 24 21 88 SW6 29.69S VSB 3/4 WCI 17 $$ NJZ001>014-140500- NORTHERN NEW JERSEY CITY SKY/WX TMP DP RH WIND PRES REMARKS SUSSEX CLOUDY 24 8 50 SW5 29.63S WCI 18 ANDOVER* N/A 23 9 55 VRB3 29.63S MORRISTOWN CLOUDY 27 9 46 W3 29.67R NEWARK CLOUDY 28 6 39 SW9 29.67F WCI 19 TETERBORO CLOUDY 27 7 42 W6 29.67S WCI 20 CALDWELL CLOUDY 26 6 42 W3 29.67S SOMERVILLE CLOUDY 25 12 58 VRB6 29.68R WCI 18 ALLAIRE* FLURRIES 26 12 55 SW12 29.70S WCI 16 TOMS RIVER* LGT SNOW 25 20 81 SW7 29.71S WCI 17 $$ PAZ043-044-047-054-055-060>062-066>071-140500- EASTERN PENNSYLVANIA CITY SKY/WX TMP DP RH WIND PRES REMARKS PHILADELPHIA LGT SNOW 27 24 89 S8 29.71S VSB 3/4 WCI 19 NORTH PHILA LGT SNOW 27 23 85 SW6 29.71S VSB 3/4 WCI 20 BLUE BELL* CLOUDY 23 23 100 CALM 29.70S VSB 1 DOYLESTOWN LGT SNOW 22 19 89 SW7 29.67S FOG WCI 13 QUAKERTOWN* CLOUDY 23 19 86 CALM 29.67S PERKASIE* LGT SNOW 21 19 93 CALM 29.67F POTTSTOWN SNOW 22 21 96 SE3 29.67F VSB 1/2 LANCASTER LGT SNOW 24 23 96 E6 29.60F FOG WCI 17 COATESVILLE LGT SNOW 23 23 100 CALM 29.64F VSB 3/4 READING LGT SNOW 23 23 100 CALM 29.63F FOG ALLENTOWN LGT SNOW 23 18 81 SW5 29.66S WCI 17 MOUNT POCONO LGT SNOW 14 12 92 W8 29.51F FOG WCI 3 HAZLETON LGT SNOW 19 12 73 CALM 29.56F VSB 3/4 LEHIGHTON LGT SNOW 21 19 93 CALM 29.65S VSB 3/4 WILKES BARRE LGT SNOW 19 16 88 CALM 29.59S VSB 3/4 $$ DEZALL-MDZ008-012-015-019-020-140500- DELAWARE AND EASTERN MARYLAND CITY SKY/WX TMP DP RH WIND PRES REMARKS WILMINGTON LGT SNOW 27 25 92 S7 29.68F FOG WCI 19 DOVER FLURRIES 28 28 100 SE6 29.68F WCI 22 GEORGETOWN FLURRIES 29 27 92 S6 29.71F WCI 23 EASTON CLOUDY 35 17 48 S7 29.71F WCI 29 ABERDEEN CLOUDY N/A N/A N/A CALM 29.66F PATUXENT CLOUDY 37 18 46 S12G22 29.67F WCI 29 OCEAN CITY LGT SNOW 33 27 78 SW14G23 29.73F WCI 23 WALLOPS ISLAND FLURRIES 34 26 72 SW15 29.73F WCI 24 CAMBRIDGE CLOUDY 36 19 51 S10 29.69F WCI 28 SALISBURY LGT SNOW 32 28 85 S10 29.72S FOG WCI 24 $$ PAZ001-021-NYZ056-072-MDZ011-DCZ001-140500- OTHER NEARBY LOCATIONS CITY SKY/WX TMP DP RH WIND PRES REMARKS HARRISBURG LGT SNOW 25 23 92 SE7 29.59F FOG WCI 17 STATE COLLEGE LGT SNOW 19 17 91 N3 29.50F WILLIAMSPORT LGT SNOW 22 18 85 E6 29.58F FOG WCI 14 BINGHAMTON LGT SNOW 13 11 92 SW6 29.52S VSB 1 WCI 4 NEW YORK CITY CLOUDY 27 6 41 VRB5G17 29.68F WCI 22 BALTIMORE CLOUDY 30 21 69 E7 29.63F WCI 23 WASHINGTON DC CLOUDY 36 15 42 S15 29.63F WCI 27 $$